sat.trackr.live / text

‹ back to catalog

TIANPING 2A

NORAD 52153 · 2022-032A

PAYLOAD ACTIVE UNKNOWN

§ Identity

Operator
Country
PRC
Launch date
2022-03-30
Launch site
JSC
Launch vehicle
Mass (kg)
RCS (m²)

External: N2YO · Heavens-Above · Gunter

§ Orbital elements

Epoch: 2026-05-25T03:43:40.783296Z

Period
96.18 min
Inclination
97.5874°
Eccentricity
0.0008978
Mean motion
14.97129489 rev/d
Perigee alt
569.5 km
Apogee alt
582.0 km
Semi-major
6,953.9 km
B*
3.3308e-5
RAAN
183.5373°
Arg perigee
256.2532°
Mean anomaly
103.7691°
Rev number
22,639

§ Raw data

TIANPING 2A1 52153U 22032A   26145.15533314  .00000328  00000+0  33308-4 0  99912 52153  97.5874 183.5373 0008978 256.2532 103.7691 14.97129489226398

JSON: /api/v1/satellites/52153 · /tle

For live sub-satellite position, see the globe view (requires WebGL).

§ Visibility from observer

Set your observer location to see the next 7 days of passes ≥ 10°. The values pass through the URL so the page stays shareable.

No JS? Fill the form by hand. The geolocation button needs JavaScript.